User: anonymous   Login
Location: Peebles
(55.6412°N, 3.1714°W)
Time: 05:43:15
(UTC+00:00)
Language:

FENGYUN 1C DEB - Orbit

View from above orbital plane
View from above orbital plane
View from above satellite
View from above satellite

Ground track
Ground track

The orbit data is extracted from the following two-line orbital elements,

1 30331U 99025AAS 22334.40368885  .00000725  00000-0  54051-3 0  9993
2 30331  99.0906  13.9587 0099491 171.0193 202.4397 13.95758280806472
Epoch (UTC): 30 November 2022 09:41:18
Eccentricity: 0.0099491
inclination: 99.0906°
perigee height: 836 km
apogee height: 981 km
right ascension of ascending node: 13.9587°
argument of perigee: 171.0193°
revolutions per day: 13.95758280
mean anomaly at epoch: 202.4397°
orbit number at epoch: 80647

The dashed part of the orbit path shows where the satellite is in the earth's shadow,  

DLR